Location: Niedergestelen
(46.3129°N, 7.7822°E)
Time: 05:33:00
(UTC+00:00)

Cosmos 1680 Rocket - Pass Details

Date: 01 December 2020
Orbit: 760 x 781 km, 74.1° (Epoch: 18 January)

Event Time Altitude Azimuth Distance (km) Brightness Sun altitude
Rises 17:42:26 0° 183° (S) 3,229 6.9 -19.8°
Reaches altitude 10° 17:44:52 10° 177° (S) 2,310 6.1 -20.2°
Maximum altitude 17:49:53 48° 104° (ESE) 1,015 3.7 -21.0°
Enters shadow 17:50:25 46° 86° (E) 1,040 3.7 -21.1°
